Weather History for KCEZ - January, 2013

Change the Weather History Date:

Monday, January 14, 2013

  Actual Average Record
Temperature  
Mean Temperature 5 °F 28 °F  
Max Temperature 21 °F 41 °F 55 °F (2006)
Min Temperature -12 °F 15 °F -12 °F (2013)
Degree Days  
Heating Degree Days 60 37  
Month to date heating degree days 722 527  
Since 1 July heating degree days 3176 3185  
Cooling Degree Days 0 0  
Month to date cooling degree days 0 0  
Year to date cooling degree days 0 0  
Moisture  
Dew Point 1 °F    
Average Humidity 66    
Maximum Humidity 86    
Minimum Humidity 45    
Precipitation  
Precipitation T in 0.03 in 0.09 in (1997)
Month to date precipitation 0.02 0.47  
Year to date precipitation 0.02 0.47  
Sea Level Pressure  
Sea Level Pressure 30.13 in    
Wind  
Wind Speed 5 mph (ENE)    
Max Wind Speed 15 mph    
Max Gust Speed 17 mph    
Visibility 7 miles    
Events Snow    
T = Trace of Precipitation, MM = Missing Value Source: NWS Daily Summary

Daily Weather History Graph

Daily Weather History Graph

Search for Another Location

Airport or City:

Trip Planner

Search our weather history database for the weather conditions in past years. The results will help you decide how hot, cold, wet, or windy it might be!

Date:

Astronomy

Jan. 14, 2013 Rise Set
Actual Time 7:27 AM MST 5:20 PM MST
Civil Twilight 6:59 AM MST 5:48 PM MST
Nautical Twilight 6:27 AM MST 6:20 PM MST
Astronomical Twilight 5:55 AM MST 6:51 PM MST
Moon 9:08 AM MST (1/14) 9:02 PM MST (1/14)
Length of Visible Light 10h 49m
Length of Day
9h 52m
Waxing Crescent, 12% of the Moon is Illuminated
Jan 14
Waxing Crescent
Jan 18
First Quarter
Jan 26
Full
Feb 3
Last Quarter
Feb 10
New

Hourly Weather History & Observations

Time (MST) Temp. Windchill Dew Point Humidity Pressure Visibility Wind Dir Wind Speed Gust Speed Precip Events Conditions
12:39 AM 6.8 °F -2.0 °F 1.4 °F 79% 29.94 in 2.5 mi East 4.6 mph - 0.00 in Snow Light Snow
12:46 AM 6.8 °F -2.0 °F 1.4 °F 79% 29.94 in 4.0 mi East 4.6 mph - 0.00 in Snow Light Snow
12:53 AM 8.1 °F 1.4 °F 3.9 °F 83% 30.08 in 5.0 mi East 3.5 mph - 0.00 in Snow Light Snow
1:53 AM 8.1 °F -0.5 °F 3.0 °F 80% 30.09 in 4.0 mi East 4.6 mph - 0.00 in Snow Light Snow
2:16 AM 8.6 °F - 3.2 °F 79% 29.95 in 1.8 mi Calm Calm - 0.00 in Snow Light Snow
2:34 AM 10.4 °F - 5.0 °F 79% 29.95 in 2.0 mi Calm Calm - 0.00 in Snow Light Snow
2:48 AM 8.6 °F - 5.0 °F 85% 29.95 in 2.5 mi Calm Calm - 0.00 in Snow Light Snow
2:49 AM 9.0 °F - 5.0 °F 84% 30.10 in 2.5 mi Calm Calm - 0.00 in Snow Light Snow
2:59 AM 8.6 °F 2.0 °F 5.0 °F 85% 29.96 in 3.0 mi East 3.5 mph - 0.00 in Snow Light Snow
3:53 AM 9.0 °F 2.4 °F 5.0 °F 84% 30.10 in 4.0 mi East 3.5 mph - 0.00 in Snow Light Snow
4:16 AM 10.4 °F 4.0 °F 5.0 °F 79% 29.95 in 2.5 mi ENE 3.5 mph - 0.00 in Snow Light Snow
4:34 AM 8.6 °F 0.1 °F 5.0 °F 85% 29.94 in 3.0 mi East 4.6 mph - 0.00 in Snow Light Snow
4:53 AM 10.0 °F 3.6 °F 5.0 °F 80% 30.08 in 4.0 mi East 3.5 mph - 0.00 in Snow Light Snow
5:53 AM 8.1 °F 1.4 °F 3.9 °F 83% 30.12 in 5.0 mi ENE 3.5 mph - 0.00 in Snow Light Snow
6:53 AM 7.0 °F -4.5 °F 1.9 °F 80% 30.14 in 10.0 mi East 6.9 mph - 0.00 in   Overcast
7:53 AM 6.1 °F -2.8 °F -0.0 °F 76% 30.18 in 10.0 mi East 4.6 mph - N/A   Overcast
8:53 AM 8.1 °F -0.5 °F 1.9 °F 76% 30.18 in 10.0 mi ENE 4.6 mph - N/A   Mostly Cloudy
9:53 AM 10.9 °F - 3.9 °F 73% 30.18 in 10.0 mi Calm Calm - N/A   Clear
10:53 AM 16.0 °F 10.4 °F 6.1 °F 65% 30.18 in 10.0 mi ESE 3.5 mph - N/A   Clear
11:53 AM 15.1 °F 7.7 °F 8.1 °F 74% 30.16 in 10.0 mi SSW 4.6 mph - N/A   Clear
12:53 PM 18.0 °F 7.7 °F 9.0 °F 68% 30.11 in 10.0 mi South 8.1 mph - N/A   Clear
1:53 PM 21.0 °F 8.6 °F 3.9 °F 48% 30.08 in 10.0 mi West 12.7 mph - N/A   Partly Cloudy
2:53 PM 21.0 °F 9.9 °F 3.0 °F 46% 30.10 in 10.0 mi WNW 10.4 mph - N/A   Partly Cloudy
3:53 PM 19.9 °F 7.9 °F 1.9 °F 46% 30.13 in 10.0 mi North 11.5 mph - N/A   Clear
4:53 PM 17.1 °F 10.0 °F -0.0 °F 47% 30.17 in 10.0 mi NNW 4.6 mph - N/A   Clear
5:53 PM 10.0 °F - -2.9 °F 56% 30.25 in 10.0 mi Calm Calm - N/A   Clear
6:53 PM 5.0 °F -2.1 °F -6.0 °F 61% 30.30 in 10.0 mi East 3.5 mph - N/A   Clear
7:53 PM -0.0 °F -13.0 °F -9.0 °F 66% 30.34 in 10.0 mi ENE 6.9 mph - N/A   Clear
8:53 PM -0.0 °F -13.0 °F -9.9 °F 63% 30.34 in 10.0 mi ENE 6.9 mph - N/A   Clear
9:53 PM -4.0 °F -17.8 °F -11.9 °F 69% 30.35 in 10.0 mi East 6.9 mph - N/A   Clear
10:53 PM -11.0 °F -22.8 °F -17.0 °F 75% 30.35 in 10.0 mi ENE 4.6 mph - N/A   Clear
11:53 PM -11.9 °F -28.7 °F -18.0 °F 74% 30.38 in 10.0 mi ENE 8.1 mph - N/A   Clear